,,PA_Meas_PMT16A,,PR_Meas_QMR101_102,,RH_Meas_QMH101,,SR_Meas_QMS101,,TA_Meas_QMH101,,GenWind,,GenWind,
time,status,PA,status,PR,status,RH,status,SR,status,TA,status,DirAvg,status,SpdAvg,
2011-07-16, 00:00:04,VALID,918.324,VALID,0,VALID,95.0411,VALID,0,VALID,19.7223,VALID,126,VALID,0.223828,
2011-07-16, 00:01:04,VALID,918.325,VALID,0,VALID,95.1555,VALID,0,VALID,19.7223,VALID,125,VALID,0.00820312,
2011-07-16, 00:02:04,VALID,918.339,VALID,0,VALID,95.1555,VALID,0,VALID,19.7208,VALID,125,VALID,0,
2011-07-16, 00:03:04,VALID,918.32,VALID,0,VALID,95.2393,VALID,0,VALID,19.7418,VALID,125,VALID,0,
2011-07-16, 00:04:04,VALID,918.326,VALID,0,VALID,95.2698,VALID,0,VALID,19.7403,VALID,124,VALID,0.2,
2011-07-16, 00:05:04,VALID,918.318,VALID,0,VALID,95.3232,VALID,0,VALID,19.7403,VALID,125,VALID,0,
2011-07-16, 00:06:04,VALID,918.331,VALID,0,VALID,95.3003,VALID,0,VALID,19.7613,VALID,125,VALID,0,
2011-07-16, 00:07:04,VALID,918.349,VALID,0,VALID,95.2546,VALID,0,VALID,19.7613,VALID,125,VALID,0,
2011-07-16, 00:08:04,VALID,918.336,VALID,0,VALID,95.2241,VALID,0,VALID,19.7808,VALID,125,VALID,0.281641,
2011-07-16, 00:09:04,VALID,918.348,VALID,0,VALID,95.2927,VALID,0,VALID,19.7403,VALID,125,VALID,0.113672,
2011-07-16, 00:10:04,VALID,918.338,VALID,0,VALID,95.1555,VALID,0,VALID,19.7208,VALID,125,VALID,0.0664063,
2011-07-16, 00:11:04,VALID,918.369,VALID,0,VALID,95.0716,VALID,0,VALID,19.7028,VALID,125,VALID,0.0539063,
2011-07-16, 00:12:04,VALID,918.347,VALID,0,VALID,95.0945,VALID,0,VALID,19.6818,VALID,125,VALID,0.0960938,
2011-07-16, 00:13:04,VALID,918.374,VALID,0,VALID,95.0716,VALID,0,VALID,19.6833,VALID,125,VALID,0.435937,
2011-07-16, 00:14:04,VALID,918.339,VALID,0,VALID,95.1402,VALID,0,VALID,19.7028,VALID,125,VALID,0.229687,
2011-07-16, 00:15:04,VALID,918.344,VALID,0,VALID,95.1783,VALID,0,VALID,19.7223,VALID,125,VALID,0,
2011-07-16, 00:16:04,VALID,918.355,VALID,0,VALID,95.1326,VALID,0,VALID,19.7028,VALID,125,VALID,0.479688,
2011-07-16, 00:17:04,VALID,918.328,VALID,0,VALID,95.064,VALID,0,VALID,19.6833,VALID,125,VALID,0.346094,
2011-07-16, 00:18:04,VALID,918.345,VALID,0,VALID,95.0792,VALID,0,VALID,19.6833,VALID,125,VALID,0.357812,
2011-07-16, 00:19:04,VALID,918.312,VALID,0,VALID,95.1402,VALID,0,VALID,19.6818,VALID,125,VALID,0.687891,
2011-07-16, 00:20:04,VALID,918.334,VALID,0,VALID,95.1021,VALID,0,VALID,19.6833,VALID,125,VALID,0.478906,
2011-07-16, 00:21:04,VALID,918.332,VALID,0,VALID,95.186,VALID,0,VALID,19.6623,VALID,124,VALID,0.425781,
2011-07-16, 00:22:04,VALID,918.333,VALID,0,VALID,95.2088,VALID,0,VALID,19.6833,VALID,124,VALID,0.519531,
2011-07-16, 00:23:04,VALID,918.349,VALID,0,VALID,95.2317,VALID,0,VALID,19.6428,VALID,125,VALID,0.289844,
2011-07-16, 00:24:04,VALID,918.315,VALID,0,VALID,95.2317,VALID,0,VALID,19.6623,VALID,125,VALID,0.432813,
2011-07-16, 00:25:04,VALID,918.305,VALID,0,VALID,95.186,VALID,0,VALID,19.6638,VALID,125,VALID,0.366797,
2011-07-16, 00:26:04,VALID,918.285,VALID,0,VALID,95.186,VALID,0,VALID,19.6833,VALID,125,VALID,0.0859375,
2011-07-16, 00:27:04,VALID,918.309,VALID,0,VALID,95.1479,VALID,0,VALID,19.6833,VALID,124,VALID,0.314844,
2011-07-16, 00:28:04,VALID,918.316,VALID,0,VALID,95.0945,VALID,0,VALID,19.6638,VALID,125,VALID,0.205078,
2011-07-16, 00:29:04,VALID,918.332,VALID,0,VALID,95.0716,VALID,0,VALID,19.6428,VALID,125,VALID,0.120703,
2011-07-16, 00:30:04,VALID,918.301,VALID,0,VALID,95.0335,VALID,0,VALID,19.6638,VALID,124,VALID,0.113281,
2011-07-16, 00:31:04,VALID,918.298,VALID,0,VALID,95.0488,VALID,0,VALID,19.6833,VALID,125,VALID,0,
2011-07-16, 00:32:04,VALID,918.309,VALID,0,VALID,95.1936,VALID,0,VALID,19.7028,VALID,125,VALID,0.209766,
2011-07-16, 00:33:04,VALID,918.309,VALID,0,VALID,95.3003,VALID,0,VALID,19.7013,VALID,125,VALID,0.200781,
2011-07-16, 00:34:04,VALID,918.298,VALID,0,VALID,95.2088,VALID,0,VALID,19.7418,VALID,125,VALID,0,
2011-07-16, 00:35:04,VALID,918.283,VALID,0,VALID,95.1402,VALID,0,VALID,19.7223,VALID,125,VALID,0,
2011-07-16, 00:36:04,VALID,918.287,VALID,0,VALID,95.1555,VALID,0,VALID,19.7028,VALID,125,VALID,0,
2011-07-16, 00:37:04,VALID,918.257,VALID,0,VALID,95.1174,VALID,0,VALID,19.7223,VALID,124,VALID,0,
2011-07-16, 00:38:04,VALID,918.258,VALID,0,VALID,95.0716,VALID,0,VALID,19.6833,VALID,125,VALID,0,
2011-07-16, 00:39:04,VALID,918.263,VALID,0,VALID,95.003,VALID,0,VALID,19.6638,VALID,125,VALID,0,
2011-07-16, 00:40:04,VALID,918.257,VALID,0,VALID,94.9115,VALID,0,VALID,19.6053,VALID,125,VALID,0,
2011-07-16, 00:41:04,VALID,918.254,VALID,0,VALID,94.9573,VALID,0,VALID,19.6053,VALID,125,VALID,0,
2011-07-16, 00:42:04,VALID,918.248,VALID,0,VALID,94.9954,VALID,0,VALID,19.5663,VALID,124,VALID,0,
2011-07-16, 00:43:04,VALID,918.206,VALID,0,VALID,95.0869,VALID,0,VALID,19.5258,VALID,125,VALID,0,
2011-07-16, 00:44:04,VALID,918.209,VALID,0,VALID,95.1555,VALID,0,VALID,19.5258,VALID,124,VALID,0,
2011-07-16, 00:45:04,VALID,918.199,VALID,0,VALID,95.1479,VALID,0,VALID,19.5273,VALID,125,VALID,0,
2011-07-16, 00:46:04,VALID,918.153,VALID,0.2,VALID,95.125,VALID,0,VALID,19.5078,VALID,125,VALID,0,
2011-07-16, 00:47:04,VALID,918.127,VALID,0,VALID,95.2165,VALID,0,VALID,19.5078,VALID,125,VALID,0,
2011-07-16, 00:48:04,VALID,918.121,VALID,0,VALID,95.2546,VALID,0,VALID,19.4688,VALID,125,VALID,0,
2011-07-16, 00:49:04,VALID,918.128,VALID,0,VALID,95.4833,VALID,0,VALID,19.4673,VALID,125,VALID,0,
2011-07-16, 00:50:04,VALID,918.111,VALID,0,VALID,95.4452,VALID,0,VALID,19.4478,VALID,125,VALID,0,
2011-07-16, 00:51:04,VALID,918.099,VALID,0,VALID,95.4757,VALID,0,VALID,19.4298,VALID,125,VALID,0,
2011-07-16, 00:52:04,VALID,918.094,VALID,0,VALID,95.4909,VALID,0,VALID,19.4103,VALID,125,VALID,0.294922,
2011-07-16, 00:53:04,VALID,918.094,VALID,0,VALID,95.5671,VALID,0,VALID,19.4103,VALID,125,VALID,0.386328,
2011-07-16, 00:54:04,VALID,918.082,VALID,0,VALID,95.6662,VALID,0,VALID,19.4298,VALID,125,VALID,0.500391,
2011-07-16, 00:55:04,VALID,918.109,VALID,0,VALID,95.7425,VALID,0,VALID,19.4103,VALID,125,VALID,0.603516,
2011-07-16, 00:56:04,VALID,918.086,VALID,0,VALID,95.7654,VALID,0,VALID,19.4103,VALID,125,VALID,0.586719,
2011-07-16, 00:57:04,VALID,918.098,VALID,0,VALID,95.7654,VALID,0,VALID,19.4103,VALID,125,VALID,0.527734,
2011-07-16, 00:58:04,VALID,918.055,VALID,0,VALID,95.7654,VALID,0,VALID,19.3893,VALID,125,VALID,0.612891,
2011-07-16, 00:59:04,VALID,918.066,VALID,0,VALID,95.7577,VALID,0,VALID,19.4103,VALID,125,VALID,0.465234,
2011-07-16, 01:00:04,VALID,918.088,VALID,0,VALID,95.712,VALID,0,VALID,19.3908,VALID,125,VALID,0.679297,
2011-07-16, 01:01:04,VALID,918.043,VALID,0,VALID,95.6815,VALID,0,VALID,19.4103,VALID,125,VALID,0.430469,
2011-07-16, 01:02:04,VALID,918.058,VALID,0,VALID,95.6434,VALID,0,VALID,19.3908,VALID,124,VALID,0.711328,
2011-07-16, 01:03:04,VALID,918.061,VALID,0,VALID,95.6053,VALID,0,VALID,19.3908,VALID,125,VALID,0.608594,
2011-07-16, 01:04:04,VALID,918.021,VALID,0,VALID,95.5367,VALID,0,VALID,19.3698,VALID,125,VALID,0.754297,
2011-07-16, 01:05:04,VALID,918.027,VALID,0,VALID,95.4757,VALID,0,VALID,19.3713,VALID,125,VALID,0.580859,
2011-07-16, 01:06:04,VALID,918.014,VALID,0,VALID,95.4833,VALID,0.107441,VALID,19.3713,VALID,125,VALID,0.413281,
2011-07-16, 01:07:04,VALID,918.019,VALID,0,VALID,95.4604,VALID,0,VALID,19.3713,VALID,125,VALID,0.560156,
2011-07-16, 01:08:04,VALID,917.995,VALID,0,VALID,95.4299,VALID,0,VALID,19.3518,VALID,125,VALID,0.471484,
2011-07-16, 01:09:04,VALID,917.962,VALID,0,VALID,95.4299,VALID,0,VALID,19.3308,VALID,125,VALID,0.516406,
2011-07-16, 01:10:04,VALID,917.977,VALID,0,VALID,95.4452,VALID,0.107441,VALID,19.3323,VALID,125,VALID,0.644922,
2011-07-16, 01:11:04,VALID,917.985,VALID,0,VALID,95.4909,VALID,0,VALID,19.3113,VALID,151,VALID,0.2125,
2011-07-16, 01:12:04,VALID,917.959,VALID,0,VALID,95.59,VALID,0,VALID,19.3518,VALID,151,VALID,0.283203,
2011-07-16, 01:13:04,VALID,917.948,VALID,0,VALID,95.6662,VALID,0,VALID,19.3518,VALID,166,VALID,0.815625,
2011-07-16, 01:14:04,VALID,917.941,VALID,0,VALID,95.7196,VALID,0,VALID,19.3713,VALID,167,VALID,0.611328,
2011-07-16, 01:15:04,VALID,917.945,VALID,0,VALID,95.8035,VALID,0,VALID,19.3503,VALID,166,VALID,0.764453,
2011-07-16, 01:16:04,VALID,917.938,VALID,0,VALID,95.834,VALID,0,VALID,19.3518,VALID,166,VALID,0.495313,
2011-07-16, 01:17:04,VALID,917.964,VALID,0,VALID,95.8797,VALID,0,VALID,19.3308,VALID,166,VALID,0.751562,
2011-07-16, 01:18:04,VALID,917.922,VALID,0,VALID,95.9102,VALID,0,VALID,19.3323,VALID,166,VALID,0.478516,
2011-07-16, 01:19:04,VALID,917.909,VALID,0,VALID,95.9941,VALID,0,VALID,19.3308,VALID,166,VALID,0.646094,
2011-07-16, 01:20:04,VALID,917.884,VALID,0,VALID,96.0474,VALID,0,VALID,19.3308,VALID,166,VALID,0.65625,
2011-07-16, 01:21:04,VALID,917.896,VALID,0,VALID,96.0932,VALID,0,VALID,19.3308,VALID,135,VALID,0.860937,
2011-07-16, 01:22:04,VALID,917.898,VALID,0,VALID,96.0932,VALID,0,VALID,19.3323,VALID,147,VALID,0.478906,
2011-07-16, 01:23:04,VALID,917.879,VALID,0,VALID,96.1541,VALID,0,VALID,19.3323,VALID,146,VALID,0.569922,
2011-07-16, 01:24:04,VALID,917.86,VALID,0,VALID,96.1618,VALID,0,VALID,19.2918,VALID,146,VALID,0.66875,
2011-07-16, 01:25:04,VALID,917.839,VALID,0,VALID,96.1923,VALID,0,VALID,19.2738,VALID,146,VALID,0.684766,
2011-07-16, 01:26:04,VALID,917.872,VALID,0,VALID,96.2609,VALID,0,VALID,19.3323,VALID,146,VALID,0.300391,
2011-07-16, 01:27:04,VALID,917.862,VALID,0,VALID,96.2685,VALID,0,VALID,19.3128,VALID,146,VALID,0.728125,
2011-07-16, 01:28:04,VALID,917.851,VALID,0,VALID,96.2761,VALID,0,VALID,19.3128,VALID,146,VALID,0.633594,
2011-07-16, 01:29:04,VALID,917.823,VALID,0,VALID,96.3066,VALID,0,VALID,19.2933,VALID,146,VALID,1.18164,
2011-07-16, 01:30:04,VALID,917.829,VALID,0,VALID,96.3219,VALID,0,VALID,19.2738,VALID,146,VALID,0.625,
2011-07-16, 01:31:04,VALID,917.81,VALID,0,VALID,96.3371,VALID,0,VALID,19.2738,VALID,146,VALID,1.01563,
2011-07-16, 01:32:04,VALID,917.791,VALID,0,VALID,96.3219,VALID,0,VALID,19.2543,VALID,146,VALID,0.975781,
2011-07-16, 01:33:04,VALID,917.806,VALID,0,VALID,96.3676,VALID,0,VALID,19.2738,VALID,146,VALID,0.510156,
2011-07-16, 01:34:04,VALID,917.769,VALID,0,VALID,96.3752,VALID,0,VALID,19.2738,VALID,146,VALID,0.689844,
2011-07-16, 01:35:04,VALID,917.758,VALID,0,VALID,96.3524,VALID,0,VALID,19.2543,VALID,146,VALID,0.6,
2011-07-16, 01:36:04,VALID,917.709,VALID,0,VALID,96.3676,VALID,0,VALID,19.2139,VALID,146,VALID,0.845703,
2011-07-16, 01:37:04,VALID,917.729,VALID,0.2,VALID,96.3371,VALID,0,VALID,19.2153,VALID,146,VALID,0.907031,
2011-07-16, 01:38:04,VALID,917.743,VALID,0,VALID,96.3447,VALID,0,VALID,19.1958,VALID,146,VALID,0.808984,
2011-07-16, 01:39:04,VALID,917.714,VALID,0,VALID,96.3371,VALID,0,VALID,19.1958,VALID,146,VALID,0.830078,
2011-07-16, 01:40:04,VALID,917.708,VALID,0,VALID,96.3524,VALID,0,VALID,19.1944,VALID,146,VALID,0.827734,
2011-07-16, 01:41:04,VALID,917.689,VALID,0,VALID,96.36,VALID,0,VALID,19.2153,VALID,146,VALID,0.626953,
2011-07-16, 01:42:04,VALID,917.678,VALID,0,VALID,96.3524,VALID,0,VALID,19.2139,VALID,146,VALID,0.660156,
2011-07-16, 01:43:04,VALID,917.679,VALID,0,VALID,96.3219,VALID,0,VALID,19.1958,VALID,146,VALID,0.834766,
2011-07-16, 01:44:04,VALID,917.64,VALID,0,VALID,96.299,VALID,0,VALID,19.1958,VALID,146,VALID,0.7125,
2011-07-16, 01:45:04,VALID,917.641,VALID,0,VALID,96.299,VALID,0,VALID,19.1763,VALID,193,VALID,0.935156,
2011-07-16, 01:46:04,VALID,917.624,VALID,0,VALID,96.3066,VALID,0,VALID,19.1749,VALID,138,VALID,0.183984,
2011-07-16, 01:47:04,VALID,917.632,VALID,0,VALID,96.3371,VALID,0,VALID,19.1958,VALID,138,VALID,0.503516,
2011-07-16, 01:48:04,VALID,917.579,VALID,0,VALID,96.2228,VALID,0,VALID,19.1359,VALID,138,VALID,0.823828,
2011-07-16, 01:49:04,VALID,917.577,VALID,0,VALID,96.2075,VALID,0,VALID,19.1568,VALID,138,VALID,0.678516,
2011-07-16, 01:50:04,VALID,917.546,VALID,0,VALID,96.177,VALID,0,VALID,19.1373,VALID,138,VALID,0.544531,
2011-07-16, 01:51:04,VALID,917.536,VALID,0,VALID,96.1618,VALID,0,VALID,19.1178,VALID,138,VALID,0.341406,
2011-07-16, 01:52:04,VALID,917.519,VALID,0,VALID,96.1465,VALID,0,VALID,19.1373,VALID,138,VALID,0.090625,
2011-07-16, 01:53:04,VALID,917.521,VALID,0,VALID,96.0855,VALID,0,VALID,19.0969,VALID,138,VALID,0.3375,
2011-07-16, 01:54:04,VALID,917.481,VALID,0,VALID,96.116,VALID,0,VALID,19.1178,VALID,138,VALID,0.432031,
2011-07-16, 01:55:04,VALID,917.465,VALID,0,VALID,96.0474,VALID,0,VALID,19.1373,VALID,138,VALID,0,
2011-07-16, 01:56:04,VALID,917.4,VALID,0,VALID,96.0245,VALID,0,VALID,19.0969,VALID,138,VALID,0.326172,
2011-07-16, 01:57:04,VALID,917.393,VALID,0,VALID,96.0169,VALID,0,VALID,19.1178,VALID,138,VALID,0.530078,
2011-07-16, 01:58:04,VALID,917.407,VALID,0,VALID,95.9864,VALID,0,VALID,19.0983,VALID,138,VALID,0.519922,
2011-07-16, 01:59:04,VALID,917.374,VALID,0,VALID,95.9712,VALID,0,VALID,19.0983,VALID,138,VALID,0.307813,
2011-07-16, 02:00:04,VALID,917.375,VALID,0,VALID,95.9788,VALID,0,VALID,19.0983,VALID,138,VALID,0.568359,
2011-07-16, 02:01:04,VALID,917.303,VALID,0,VALID,95.9559,VALID,0,VALID,19.0983,VALID,138,VALID,0.482812,
2011-07-16, 02:02:04,VALID,917.347,VALID,0,VALID,95.9712,VALID,0,VALID,19.0788,VALID,138,VALID,0.367578,
2011-07-16, 02:03:04,VALID,917.335,VALID,0,VALID,95.9331,VALID,0,VALID,19.0593,VALID,160,VALID,0.898828,
2011-07-16, 02:04:04,VALID,917.338,VALID,0,VALID,95.895,VALID,0,VALID,19.0788,VALID,160,VALID,0.438281,
2011-07-16, 02:05:04,VALID,917.308,VALID,0,VALID,95.8797,VALID,0,VALID,19.0593,VALID,160,VALID,0.6125,
2011-07-16, 02:06:04,VALID,917.301,VALID,0,VALID,95.8645,VALID,0,VALID,19.0788,VALID,160,VALID,0.227344,
2011-07-16, 02:07:04,VALID,917.301,VALID,0,VALID,95.8492,VALID,0,VALID,19.0788,VALID,160,VALID,0.330469,
2011-07-16, 02:08:04,VALID,917.285,VALID,0,VALID,95.8035,VALID,0,VALID,19.0788,VALID,160,VALID,0.630078,
2011-07-16, 02:09:04,VALID,917.287,VALID,0,VALID,95.712,VALID,0,VALID,19.0788,VALID,160,VALID,0.137109,
2011-07-16, 02:10:04,VALID,917.254,VALID,0,VALID,95.6357,VALID,0,VALID,19.0593,VALID,160,VALID,0.741016,
2011-07-16, 02:11:04,VALID,917.232,VALID,0,VALID,95.5367,VALID,0,VALID,19.0398,VALID,160,VALID,0.188281,
2011-07-16, 02:12:04,VALID,917.232,VALID,0,VALID,95.4909,VALID,0,VALID,19.0593,VALID,160,VALID,0.586328,
2011-07-16, 02:13:04,VALID,917.238,VALID,0,VALID,95.4223,VALID,0,VALID,19.0398,VALID,160,VALID,0.183203,
2011-07-16, 02:14:04,VALID,917.184,VALID,0,VALID,95.3613,VALID,0,VALID,19.0203,VALID,160,VALID,0.398438,
2011-07-16, 02:15:04,VALID,917.17,VALID,0,VALID,95.4071,VALID,0,VALID,19.0398,VALID,160,VALID,0.127734,
2011-07-16, 02:16:04,VALID,917.155,VALID,0,VALID,95.3461,VALID,0,VALID,19.0203,VALID,160,VALID,0.546094,
2011-07-16, 02:17:04,VALID,917.141,VALID,0,VALID,95.3156,VALID,0,VALID,19.0203,VALID,160,VALID,0.378125,
2011-07-16, 02:18:04,VALID,917.137,VALID,0,VALID,95.3308,VALID,0,VALID,18.9799,VALID,160,VALID,0.298047,
2011-07-16, 02:19:04,VALID,917.08,VALID,0,VALID,95.3766,VALID,0,VALID,19.0008,VALID,160,VALID,0.498047,
2011-07-16, 02:20:04,VALID,917.092,VALID,0,VALID,95.3613,VALID,0,VALID,18.9814,VALID,160,VALID,0.655469,
2011-07-16, 02:21:04,VALID,917.095,VALID,0,VALID,95.4223,VALID,0,VALID,19.0008,VALID,160,VALID,0.583984,
2011-07-16, 02:22:04,VALID,917.072,VALID,0,VALID,95.4757,VALID,0,VALID,18.9814,VALID,160,VALID,0.0722656,
2011-07-16, 02:23:04,VALID,917.042,VALID,0,VALID,95.4909,VALID,0,VALID,19.0008,VALID,160,VALID,0.570703,
2011-07-16, 02:24:04,VALID,917.01,VALID,0,VALID,95.5367,VALID,0,VALID,19.0218,VALID,138,VALID,0.914453,
2011-07-16, 02:25:04,VALID,916.976,VALID,0,VALID,95.5138,VALID,0,VALID,19.0203,VALID,138,VALID,0.702344,
2011-07-16, 02:26:04,VALID,917.004,VALID,0,VALID,95.4757,VALID,0,VALID,19.0203,VALID,138,VALID,0.816016,
2011-07-16, 02:27:04,VALID,916.971,VALID,0,VALID,95.4223,VALID,0,VALID,19.0203,VALID,139,VALID,0.728906,
2011-07-16, 02:28:04,VALID,916.935,VALID,0,VALID,95.4375,VALID,0,VALID,19.0593,VALID,139,VALID,0.367578,
2011-07-16, 02:29:04,VALID,916.979,VALID,0,VALID,95.4147,VALID,0,VALID,19.0593,VALID,145,VALID,0.776172,
2011-07-16, 02:30:04,VALID,916.918,VALID,0,VALID,95.4147,VALID,0,VALID,19.0593,VALID,149,VALID,0.114453,
2011-07-16, 02:31:04,VALID,916.907,VALID,0,VALID,95.4147,VALID,0,VALID,19.0788,VALID,149,VALID,0.0515625,
2011-07-16, 02:32:04,VALID,916.911,VALID,0,VALID,95.3766,VALID,0,VALID,19.0593,VALID,149,VALID,0.362891,
2011-07-16, 02:33:04,VALID,916.884,VALID,0,VALID,95.3537,VALID,0,VALID,19.0398,VALID,149,VALID,0.304297,
2011-07-16, 02:34:04,VALID,916.922,VALID,0,VALID,95.3079,VALID,0,VALID,19.0203,VALID,149,VALID,0.552734,
2011-07-16, 02:35:04,VALID,916.915,VALID,0,VALID,95.4452,VALID,0,VALID,19.0203,VALID,149,VALID,0.4125,
2011-07-16, 02:36:04,VALID,916.938,VALID,0,VALID,95.4223,VALID,0,VALID,19.0008,VALID,149,VALID,0.526953,
2011-07-16, 02:37:04,VALID,916.882,VALID,0,VALID,95.4528,VALID,0,VALID,18.9619,VALID,149,VALID,0.605859,
2011-07-16, 02:38:04,VALID,916.904,VALID,0,VALID,95.529,VALID,0,VALID,18.9424,VALID,149,VALID,0.665234,
2011-07-16, 02:39:04,VALID,916.911,VALID,0,VALID,95.59,VALID,0,VALID,18.9229,VALID,149,VALID,0.728906,
2011-07-16, 02:40:04,VALID,916.918,VALID,0,VALID,95.651,VALID,0,VALID,18.9243,VALID,149,VALID,0.662891,
2011-07-16, 02:41:04,VALID,916.916,VALID,0,VALID,95.6662,VALID,0,VALID,18.8839,VALID,149,VALID,0.6375,
2011-07-16, 02:42:04,VALID,916.918,VALID,0.2,VALID,95.712,VALID,0,VALID,18.8644,VALID,149,VALID,0.744141,
2011-07-16, 02:43:04,VALID,916.917,VALID,0,VALID,95.7501,VALID,0,VALID,18.824,VALID,149,VALID,0.593359,
2011-07-16, 02:44:04,VALID,916.922,VALID,0,VALID,95.8111,VALID,0,VALID,18.8268,VALID,149,VALID,0.9,
2011-07-16, 02:45:04,VALID,916.912,VALID,0,VALID,95.8492,VALID,0,VALID,18.8268,VALID,149,VALID,0.658984,
2011-07-16, 02:46:04,VALID,916.876,VALID,0,VALID,95.8873,VALID,0,VALID,18.7864,VALID,149,VALID,0.620703,
2011-07-16, 02:47:04,VALID,916.846,VALID,0,VALID,95.9559,VALID,0,VALID,18.8059,VALID,154,VALID,0.975,
2011-07-16, 02:48:04,VALID,916.795,VALID,0,VALID,96.0017,VALID,0,VALID,18.8254,VALID,172,VALID,0.487891,
2011-07-16, 02:49:04,VALID,916.782,VALID,0,VALID,96.116,VALID,0,VALID,18.8434,VALID,145,VALID,1.12734,
2011-07-16, 02:50:04,VALID,916.764,VALID,0,VALID,96.1694,VALID,0,VALID,18.8644,VALID,172,VALID,0.584375,
2011-07-16, 02:51:04,VALID,916.742,VALID,0,VALID,96.2151,VALID,0,VALID,18.8839,VALID,172,VALID,0.405078,
2011-07-16, 02:52:04,VALID,916.71,VALID,0,VALID,96.2761,VALID,0,VALID,18.8839,VALID,171,VALID,0.821484,
2011-07-16, 02:53:04,VALID,916.737,VALID,0,VALID,96.2914,VALID,0,VALID,18.8644,VALID,171,VALID,0.649609,
2011-07-16, 02:54:04,VALID,916.737,VALID,0,VALID,96.3371,VALID,0,VALID,18.8644,VALID,171,VALID,0.498828,
2011-07-16, 02:55:04,VALID,916.7,VALID,0,VALID,96.3447,VALID,0,VALID,18.8644,VALID,171,VALID,0.371094,
2011-07-16, 02:56:04,VALID,916.706,VALID,0,VALID,96.3752,VALID,0,VALID,18.8853,VALID,147,VALID,0.594922,
2011-07-16, 02:57:04,VALID,916.698,VALID,0,VALID,96.3829,VALID,0,VALID,18.8658,VALID,134,VALID,0.316406,
2011-07-16, 02:58:04,VALID,916.7,VALID,0,VALID,96.421,VALID,0,VALID,18.8449,VALID,135,VALID,0.538281,
2011-07-16, 02:59:04,VALID,916.674,VALID,0,VALID,96.4286,VALID,0,VALID,18.824,VALID,134,VALID,0.660547,
2011-07-16, 03:00:04,VALID,916.682,VALID,0,VALID,96.4591,VALID,0,VALID,18.8434,VALID,134,VALID,0.863281,
2011-07-16, 03:01:04,VALID,916.657,VALID,0,VALID,96.4515,VALID,0,VALID,18.824,VALID,134,VALID,0.911719,
2011-07-16, 03:02:04,VALID,916.664,VALID,0,VALID,96.4819,VALID,0,VALID,18.8045,VALID,134,VALID,0.612891,
2011-07-16, 03:03:04,VALID,916.645,VALID,0,VALID,96.4591,VALID,0.107441,VALID,18.785,VALID,135,VALID,0.335938,
2011-07-16, 03:04:04,VALID,916.651,VALID,0,VALID,96.4591,VALID,0,VALID,18.7864,VALID,134,VALID,0.572266,
2011-07-16, 03:05:04,VALID,916.638,VALID,0,VALID,96.4515,VALID,0,VALID,18.785,VALID,135,VALID,0.490234,
2011-07-16, 03:06:04,VALID,916.644,VALID,0,VALID,96.421,VALID,0.107441,VALID,18.7655,VALID,134,VALID,0.794531,
2011-07-16, 03:07:04,VALID,916.6,VALID,0,VALID,96.4591,VALID,0,VALID,18.7864,VALID,135,VALID,0.266016,
2011-07-16, 03:08:04,VALID,916.606,VALID,0,VALID,96.4362,VALID,0.107441,VALID,18.7446,VALID,134,VALID,0.404297,
2011-07-16, 03:09:04,VALID,916.597,VALID,0,VALID,96.4286,VALID,0.107441,VALID,18.746,VALID,134,VALID,0.701172,
2011-07-16, 03:10:04,VALID,916.566,VALID,0,VALID,96.4057,VALID,0,VALID,18.7265,VALID,135,VALID,0.587891,
2011-07-16, 03:11:04,VALID,916.559,VALID,0,VALID,96.3905,VALID,0.107441,VALID,18.7265,VALID,135,VALID,0.436719,
2011-07-16, 03:12:04,VALID,916.554,VALID,0,VALID,96.3981,VALID,0,VALID,18.7279,VALID,134,VALID,0.430469,
2011-07-16, 03:13:04,VALID,916.556,VALID,0,VALID,96.421,VALID,0,VALID,18.7279,VALID,134,VALID,0.365625,
2011-07-16, 03:14:04,VALID,916.554,VALID,0,VALID,96.4057,VALID,0,VALID,18.7279,VALID,135,VALID,0.570313,
2011-07-16, 03:15:04,VALID,916.534,VALID,0,VALID,96.4057,VALID,0.107441,VALID,18.6875,VALID,134,VALID,0.323438,
2011-07-16, 03:16:04,VALID,916.547,VALID,0,VALID,96.3981,VALID,0,VALID,18.668,VALID,135,VALID,0.637109,
2011-07-16, 03:17:04,VALID,916.508,VALID,0,VALID,96.4133,VALID,0.107441,VALID,18.668,VALID,134,VALID,0.448047,
2011-07-16, 03:18:04,VALID,916.481,VALID,0,VALID,96.3829,VALID,0,VALID,18.6485,VALID,134,VALID,0.507422,
2011-07-16, 03:19:04,VALID,916.497,VALID,0,VALID,96.3981,VALID,0,VALID,18.6694,VALID,134,VALID,0.434766,
2011-07-16, 03:20:04,VALID,916.472,VALID,0,VALID,96.4133,VALID,0.107441,VALID,18.6485,VALID,135,VALID,0.280859,
2011-07-16, 03:21:04,VALID,916.496,VALID,0,VALID,96.4438,VALID,0,VALID,18.668,VALID,134,VALID,0,
2011-07-16, 03:22:04,VALID,916.476,VALID,0,VALID,96.4362,VALID,0,VALID,18.6485,VALID,134,VALID,0.668359,
2011-07-16, 03:23:04,VALID,916.466,VALID,0,VALID,96.3905,VALID,0,VALID,18.629,VALID,134,VALID,0.416797,
2011-07-16, 03:24:04,VALID,916.49,VALID,0,VALID,96.4133,VALID,0,VALID,18.629,VALID,134,VALID,0.370313,
2011-07-16, 03:25:04,VALID,916.506,VALID,0,VALID,96.4515,VALID,0.107441,VALID,18.629,VALID,135,VALID,0.699609,
2011-07-16, 03:26:04,VALID,916.503,VALID,0,VALID,96.4515,VALID,0,VALID,18.629,VALID,135,VALID,0.721484,
2011-07-16, 03:27:04,VALID,916.504,VALID,0,VALID,96.4972,VALID,0,VALID,18.629,VALID,135,VALID,0.723828,
2011-07-16, 03:28:04,VALID,916.536,VALID,0,VALID,96.5124,VALID,0,VALID,18.6485,VALID,135,VALID,0.758594,
2011-07-16, 03:29:04,VALID,916.515,VALID,0,VALID,96.5429,VALID,0,VALID,18.6485,VALID,135,VALID,0.813672,
2011-07-16, 03:30:04,VALID,916.533,VALID,0,VALID,96.5506,VALID,0.107441,VALID,18.668,VALID,134,VALID,0.995313,
2011-07-16, 03:31:04,VALID,916.558,VALID,0,VALID,96.5658,VALID,0,VALID,18.6485,VALID,134,VALID,0.867578,
2011-07-16, 03:32:04,VALID,916.513,VALID,0,VALID,96.5658,VALID,0,VALID,18.6485,VALID,135,VALID,0.876953,
2011-07-16, 03:33:04,VALID,916.562,VALID,0,VALID,96.5429,VALID,0,VALID,18.6499,VALID,135,VALID,0.674219,
2011-07-16, 03:34:04,VALID,916.557,VALID,0,VALID,96.5582,VALID,0.107441,VALID,18.6499,VALID,134,VALID,0.858594,
2011-07-16, 03:35:04,VALID,916.513,VALID,0,VALID,96.5353,VALID,0.107441,VALID,18.6095,VALID,134,VALID,1.17656,
2011-07-16, 03:36:04,VALID,916.522,VALID,0,VALID,96.5277,VALID,0.107441,VALID,18.6095,VALID,135,VALID,0.79375,
2011-07-16, 03:37:04,VALID,916.524,VALID,0,VALID,96.5048,VALID,0,VALID,18.59,VALID,135,VALID,0.991797,
2011-07-16, 03:38:04,VALID,916.515,VALID,0,VALID,96.4972,VALID,0,VALID,18.59,VALID,135,VALID,0.867969,
2011-07-16, 03:39:04,VALID,916.482,VALID,0,VALID,96.5506,VALID,0.107441,VALID,18.6109,VALID,146,VALID,0.819531,
2011-07-16, 03:40:04,VALID,916.481,VALID,0,VALID,96.5201,VALID,0,VALID,18.6109,VALID,121,VALID,1.35781,
2011-07-16, 03:41:04,VALID,916.502,VALID,0,VALID,96.5429,VALID,0,VALID,18.59,VALID,149,VALID,1.24336,
2011-07-16, 03:42:04,VALID,916.473,VALID,0,VALID,96.5734,VALID,0.107441,VALID,18.6095,VALID,133,VALID,0.924609,
2011-07-16, 03:43:04,VALID,916.473,VALID,0,VALID,96.5658,VALID,0,VALID,18.6304,VALID,141,VALID,1.46172,
2011-07-16, 03:44:04,VALID,916.476,VALID,0,VALID,96.5506,VALID,0,VALID,18.6095,VALID,142,VALID,1.40391,
2011-07-16, 03:45:04,VALID,916.486,VALID,0,VALID,96.5963,VALID,0.107441,VALID,18.6095,VALID,157,VALID,0.98125,